Location: Milton
(43.5183°N, 79.8775°W)
Time: 05:09:19
(UTC+00:00)

N. Korean satellite - Pass Details

Date: 08 December 2022
Orbit: 407 x 444 km, 97.3° (Epoch: 28 January)

Event Time Altitude Azimuth Distance (km) Brightness Sun altitude
Rises 11:48:00 0° 352° (N) 2,498 9.9 -9.2°
Reaches altitude 10° 11:50:54 10° 325° (NW) 1,606 8.7 -8.7°
Maximum altitude 11:52:36 13° 295° (WNW) 1,408 8.2 -8.4°
Drops below altitude 10° 11:54:17 10° 265° (W) 1,585 8.6 -8.2°
Sets 11:57:07 0° 237° (WSW) 2,437 9.8 -7.7°
